Flag for Canada Weather past 2 weeks in Richmond, British Columbia, Canada

Now
36 °F

Passing clouds.


Feels Like: 36 °F
Forecast: 38 / 46 °F
Wind: No wind

Location: Vancouver International Air-Port

Current Time: Jan 29, 2015 at 1:25:24 AM

Latest Report: Jan 29, 2015 at 1:00 AM


Visibility: 20 mi

Pressure: 30.41 "Hg

Humidity: 93%

Dew point: 34 °F

Location of RichmondLocation

Historic Weather in Richmond — Graph

°F

Richmond temperature yesterday

Maximum temperature yesterday: 50 °F (at 2:00 PM)
Minimum temperature yesterday: 37 °F (at 11:00 PM)
Average temperature yesterday: 43 °F

Past Weeks' High & Low Weather Summary

 TemperatureHumidityPressure
High57 °F (Jan 25, 1:00 PM)100% (Jan 14, 12:00 AM)30.48 "Hg (Jan 14, 12:00 AM)
Low28 °F (Jan 14, 3:00 AM)62% (Jan 16, 3:00 PM)29.46 "Hg (Jan 18, 1:00 AM)
Average45 °F92%30.16 "Hg
* Reported Midnight between Jan 13 and Jan 14 — Midnight between Jan 28 and Jan 29, Richmond, Weather by CustomWeather, © 2014

Note: Actual official high and low records may vary slightly from our data, if they occured in-between our weather recording intervals... More about our weather records

Advertising

Richmond weather history for previous 24 hours

 ConditionsComfort  
Time TempWeatherWind HumidityBarometerVisibility
12:00 AM
Jan 29
37 °FPassing clouds.No wind100%30.41 "Hg20 mi
11:00 PM
Jan 28
37 °FPassing clouds.3 mph87%30.41 "Hg20 mi
10:00 PM39 °FClear.3 mph100%30.40 "Hg20 mi
9:00 PM41 °FClear.2 mph93%30.40 "Hg20 mi
8:00 PM39 °FClear.2 mph93%30.39 "Hg20 mi
7:00 PM39 °FClear.6 mph100%30.38 "Hg20 mi
6:00 PM39 °FClear.7 mph100%30.39 "Hg20 mi
5:00 PM43 °FPassing clouds.5 mph100%30.38 "Hg30 mi
4:00 PM46 °FPassing clouds.7 mph93%30.39 "Hg30 mi
3:00 PM48 °FPassing clouds.7 mph87%30.38 "Hg20 mi
2:00 PM50 °FPassing clouds.5 mph82%30.40 "Hg20 mi
1:00 PM46 °FPartly sunny.3 mph93%30.41 "Hg15 mi
12:00 PM46 °FBroken clouds.3 mph93%30.42 "Hg15 mi
11:00 AM46 °FPartly sunny.3 mph93%30.42 "Hg15 mi
10:00 AM46 °FLow clouds.2 mph93%30.41 "Hg15 mi
9:00 AM45 °FBroken clouds.5 mph93%30.40 "Hg15 mi
8:00 AM45 °FMostly cloudy.2 mph93%30.39 "Hg15 mi
7:00 AM43 °FMostly cloudy.3 mph93%30.37 "Hg15 mi
6:00 AM41 °FPartly cloudy.3 mph100%30.36 "Hg15 mi
5:00 AM41 °FPartly cloudy.2 mph93%30.35 "Hg15 mi
4:00 AM45 °FPartly cloudy.5 mph93%30.34 "Hg15 mi
3:00 AM43 °FPartly cloudy.6 mph93%30.32 "Hg15 mi
2:00 AM45 °FPassing clouds.3 mph93%30.30 "Hg15 mi
1:00 AM45 °FPartly cloudy.5 mph93%30.28 "Hg15 mi
Weather by CustomWeather, © 2014

See weather overviewHow to use our weather pages